Home > Weather > Anaheim > Past weeks

Flag for U.S.A. Weather for the Past 2 Weeks in Anaheim, California, U.S.A.

Now
58 °F

Clear.


Feels Like: 58 °F
Forecast: 56 / 88 °F
Wind: No wind

Location: Fullerton Municipal Airport

Current Time: Feb 9, 2016 at 4:22:02 AM

Latest Report: Feb 9, 2016 at 2:53 AM


Visibility: 10 mi

Pressure: 30.10 "Hg

Humidity: 36%

Dew point: 31 °F

Location of AnaheimLocation

Historic Weather in Anaheim — Graph

°F

Anaheim Temperature Yesterday

Maximum temperature yesterday: 88 °F (at 1:53 PM)
Minimum temperature yesterday: 55 °F (at 3:53 AM)
Average temperature yesterday: 73 °F

High & Low Weather Summary for the Past Weeks

 TemperatureHumidityPressure
High89 °F (Feb 7, 2:53 PM)90% (Jan 31, 1:02 AM)30.35 "Hg (Jan 31, 1:02 AM)
Low36 °F (Feb 2, 5:53 AM)8% (Feb 7, 2:53 PM)29.61 "Hg (Jan 31, 2:00 PM)
Average60 °F45%30.12 "Hg
* Reported Jan 25 2:53 AM — Feb 9 2:53 AM, Anaheim, Weather by CustomWeather, © 2016

Note: Actual official high and low records may vary slightly from our data, if they occured in-between our weather recording intervals... More about our weather records

Advertising

Anaheim Weather History for the Previous 24 Hours

 ConditionsComfort  
Time TempWeatherWind HumidityBarometerVisibility
2:53 AM
Tue, Feb 9
58 °FClear.No wind36%30.10 "Hg10 mi
1:53 AM58 °FClear.3 mph36%30.10 "Hg10 mi
12:53 AM60 °FClear.No wind33%30.11 "Hg10 mi
11:53 PM
Mon, Feb 8
68 °FClear.No wind19%30.11 "Hg10 mi
10:53 PM66 °FClear.6 mph21%30.12 "Hg10 mi
9:53 PM65 °FClear.3 mph24%30.11 "Hg10 mi
8:53 PM73 °FClear.3 mph14%30.10 "Hg10 mi
7:53 PM74 °FClear.No wind15%30.09 "Hg10 mi
6:53 PM76 °FClear.6 mph14%30.07 "Hg10 mi
5:53 PM81 °FClear.6 mph11%30.06 "Hg10 mi
4:53 PM85 °FSunny.15 mph10%30.06 "Hg10 mi
3:53 PM87 °FSunny.14 mph9%30.05 "Hg10 mi
2:53 PM88 °FSunny.16 mph9%30.06 "Hg10 mi
1:53 PM88 °FSunny.15 mph10%30.07 "Hg10 mi
12:53 PM87 °FSunny.20 mph9%30.08 "Hg10 mi
11:53 AM87 °FSunny.23 mph9%30.10 "Hg10 mi
10:53 AM85 °FSunny.23 mph9%30.12 "Hg10 mi
9:53 AM82 °FSunny.21 mph11%30.12 "Hg10 mi
8:53 AM80 °FSunny.14 mph11%30.12 "Hg10 mi
7:53 AM67 °FSunny.No wind29%30.12 "Hg10 mi
6:53 AM67 °FSunny.3 mph20%30.10 "Hg10 mi
5:53 AM63 °FClear.5 mph25%30.09 "Hg10 mi
4:53 AM57 °FClear.3 mph36%30.09 "Hg10 mi
Weather by CustomWeather, © 2016

See weather overviewHow to use our weather pages